When you browse on this site, cookies collect data to enhance your experience and personalize the content and advertising you see.
Visit our Privacy Policy to learn more. By continuing to use the site, you agree to this use of cookies and data.
  • Em Portugal
  • Lista de países
  • Para 7 dias
  • Temperatura da água
  • Mapas de satélite
  • Mapa do tempo
  • Widgets de tempo
  • user-avatar
    Iniciar Sessão

    Previsão horária em Czarnoszyce

    Hoje, 10 Dezembro, Segunda-feira

    Tempo Temperatura Precipitação Vento Pressão Humidade
    00:00 +4°C° 0.3 mm 4 m/s 731 mmHg 90%
    01:00 +4°C° 0.3 mm 4 m/s 732 mmHg 89%
    02:00 +3°C° 0.2 mm 5 m/s 732 mmHg 84%
    03:00 +2°C° 0.2 mm 6 m/s 733 mmHg 79%
    04:00 +2°C° 0.2 mm 6 m/s 734 mmHg 74%
    05:00 +2°C° 0 mm 6 m/s 734 mmHg 76%
    06:00 +1°C° 0 mm 5 m/s 734 mmHg 77%
    07:00 +1°C° 0 mm 5 m/s 735 mmHg 79%
    08:00 +1°C° 0 mm 5 m/s 735 mmHg 76%
    09:00 +2°C° 0 mm 5 m/s 736 mmHg 74%
    10:00 +2°C° 0 mm 6 m/s 736 mmHg 71%
    11:00 +2°C° 0.1 mm 6 m/s 737 mmHg 69%
    12:00 +2°C° 0.1 mm 6 m/s 737 mmHg 66%
    13:00 +3°C° 0.1 mm 6 m/s 737 mmHg 64%
    14:00 +2°C° 0 mm 6 m/s 737 mmHg 67%
    15:00 +2°C° 0 mm 5 m/s 737 mmHg 70%
    16:00 +1°C° 0 mm 4 m/s 738 mmHg 73%
    17:00 +1°C° 0 mm 4 m/s 738 mmHg 75%
    18:00 0°C° 0 mm 4 m/s 738 mmHg 77%
    19:00 0°C° 0 mm 4 m/s 738 mmHg 80%
    20:00 0°C° 0 mm 4 m/s 738 mmHg 81%
    21:00 0°C° 0 mm 4 m/s 738 mmHg 82%
    22:00 0°C° 0 mm 4 m/s 738 mmHg 83%
    23:00 0°C° 0.2 mm 4 m/s 738 mmHg 84%

    Amanhã, 11 Dezembro, Terça-feira

    Tempo Temperatura Precipitação Vento Pressão Humidade
    00:00 +1°C° 0.2 mm 3 m/s 738 mmHg 85%
    01:00 +1°C° 0.2 mm 3 m/s 738 mmHg 86%
    02:00 +1°C° 0.2 mm 3 m/s 738 mmHg 87%
    03:00 +2°C° 0.2 mm 2 m/s 738 mmHg 89%
    04:00 +2°C° 0.2 mm 2 m/s 738 mmHg 90%
    05:00 +2°C° 0.1 mm 2 m/s 739 mmHg 91%
    06:00 +2°C° 0.1 mm 2 m/s 739 mmHg 92%
    07:00 +2°C° 0.1 mm 2 m/s 739 mmHg 93%
    08:00 +2°C° 0 mm 2 m/s 740 mmHg 92%
    09:00 +2°C° 0 mm 2 m/s 740 mmHg 91%
    10:00 +2°C° 0 mm 2 m/s 741 mmHg 91%
    11:00 +2°C° 0 mm 2 m/s 741 mmHg 89%
    12:00 +2°C° 0 mm 3 m/s 742 mmHg 87%
    13:00 +2°C° 0 mm 3 m/s 742 mmHg 85%
    14:00 +1°C° 0 mm 3 m/s 743 mmHg 86%
    15:00 +1°C° 0 mm 3 m/s 743 mmHg 88%
    16:00 +1°C° 0 mm 2 m/s 744 mmHg 89%
    17:00 +1°C° 0 mm 2 m/s 745 mmHg 90%
    18:00 +1°C° 0 mm 2 m/s 745 mmHg 92%
    19:00 -1°C° 0 mm 2 m/s 746 mmHg 93%
    20:00 -1°C° 0 mm 2 m/s 746 mmHg 93%
    21:00 -1°C° 0 mm 2 m/s 746 mmHg 93%
    22:00 -1°C° 0 mm 2 m/s 747 mmHg 93%
    23:00 -1°C° 0 mm 2 m/s 747 mmHg 93%

    Depois de amanhã, 12 Dezembro, Quarta-feira

    Tempo Temperatura Precipitação Vento Pressão Humidade
    00:00 -1°C° 0 mm 2 m/s 748 mmHg 93%
    01:00 -1°C° 0 mm 2 m/s 748 mmHg 93%
    02:00 +1°C° 0 mm 1 m/s 748 mmHg 92%
    03:00 +1°C° 0 mm 1 m/s 748 mmHg 92%
    04:00 +1°C° 0 mm 1 m/s 749 mmHg 92%
    05:00 +1°C° 0.2 mm 1 m/s 749 mmHg 92%
    06:00 +2°C° 0.2 mm 1 m/s 749 mmHg 92%
    07:00 +2°C° 0.2 mm 1 m/s 750 mmHg 91%
    08:00 +2°C° 0.2 mm 1 m/s 750 mmHg 91%
    09:00 +2°C° 0.2 mm 1 m/s 750 mmHg 91%
    10:00 +2°C° 0.2 mm 1 m/s 751 mmHg 91%
    11:00 +3°C° 0 mm 1 m/s 751 mmHg 90%
    12:00 +3°C° 0 mm 1 m/s 751 mmHg 88%
    13:00 +3°C° 0 mm 1 m/s 751 mmHg 87%
    14:00 +2°C° 0 mm 1 m/s 751 mmHg 89%
    15:00 +2°C° 0 mm 1 m/s 751 mmHg 91%
    16:00 +1°C° 0 mm 1 m/s 751 mmHg 94%
    17:00 +1°C° 0 mm 1 m/s 751 mmHg 94%
    18:00 -1°C° 0 mm 2 m/s 751 mmHg 94%
    19:00 -1°C° 0 mm 2 m/s 752 mmHg 95%
    20:00 -1°C° 0 mm 2 m/s 752 mmHg 95%
    21:00 -1°C° 0 mm 2 m/s 752 mmHg 95%
    22:00 -1°C° 0 mm 2 m/s 752 mmHg 95%
    23:00 -1°C° 0 mm 2 m/s 752 mmHg 94%

    13 Dezembro, Quinta-feira

    Tempo Temperatura Precipitação Vento Pressão Humidade
    00:00 -1°C° 0 mm 2 m/s 752 mmHg 93%
    01:00 -1°C° 0 mm 2 m/s 753 mmHg 92%
    02:00 -2°C° 0 mm 2 m/s 752 mmHg 93%
    03:00 -2°C° 0 mm 2 m/s 752 mmHg 94%
    04:00 -2°C° 0 mm 2 m/s 752 mmHg 94%
    05:00 -2°C° 0 mm 2 m/s 752 mmHg 94%
    06:00 -2°C° 0 mm 2 m/s 752 mmHg 94%
    07:00 -2°C° 0 mm 2 m/s 752 mmHg 94%
    08:00 -2°C° 0 mm 2 m/s 752 mmHg 92%
    09:00 -2°C° 0 mm 2 m/s 752 mmHg 90%
    10:00 -1°C° 0 mm 2 m/s 752 mmHg 87%
    11:00 -1°C° 0 mm 2 m/s 752 mmHg 85%
    12:00 -1°C° 0 mm 2 m/s 752 mmHg 83%
    13:00 -1°C° 0 mm 2 m/s 751 mmHg 81%
    14:00 +1°C° 0 mm 1 m/s 751 mmHg 83%
    15:00 +1°C° 0 mm 1 m/s 751 mmHg 85%
    16:00 +1°C° 0 mm 1 m/s 751 mmHg 87%
    17:00 0°C° 0 mm 1 m/s 751 mmHg 87%
    18:00 0°C° 0 mm 1 m/s 751 mmHg 88%
    19:00 0°C° 0 mm 1 m/s 751 mmHg 88%
    20:00 0°C° 0 mm 1 m/s 751 mmHg 89%
    21:00 0°C° 0 mm 1 m/s 751 mmHg 89%
    22:00 -1°C° 0 mm 1 m/s 751 mmHg 90%
    23:00 -2°C° 0 mm 2 m/s 751 mmHg 89%

    14 Dezembro, Sexta-feira

    Tempo Temperatura Precipitação Vento Pressão Humidade
    00:00 -2°C° 0 mm 2 m/s 751 mmHg 89%
    01:00 -2°C° 0 mm 2 m/s 751 mmHg 89%
    02:00 -3°C° 0 mm 2 m/s 750 mmHg 89%
    03:00 -3°C° 0 mm 2 m/s 750 mmHg 90%
    04:00 -3°C° 0 mm 2 m/s 750 mmHg 91%
    05:00 -3°C° 0 mm 2 m/s 750 mmHg 90%
    06:00 -3°C° 0 mm 2 m/s 751 mmHg 89%
    07:00 -3°C° 0 mm 2 m/s 751 mmHg 89%
    08:00 -2°C° 0 mm 2 m/s 751 mmHg 87%
    09:00 -2°C° 0 mm 2 m/s 751 mmHg 86%
    10:00 -2°C° 0 mm 2 m/s 752 mmHg 85%
    11:00 -2°C° 0 mm 2 m/s 752 mmHg 83%
    12:00 -1°C° 0 mm 2 m/s 752 mmHg 82%
    13:00 -1°C° 0 mm 2 m/s 752 mmHg 81%
    14:00 -1°C° 0 mm 2 m/s 752 mmHg 83%
    15:00 -2°C° 0 mm 2 m/s 752 mmHg 86%
    16:00 -2°C° 0 mm 2 m/s 752 mmHg 88%
    17:00 -2°C° 0 mm 2 m/s 752 mmHg 88%
    18:00 -2°C° 0 mm 2 m/s 752 mmHg 89%
    19:00 -2°C° 0 mm 3 m/s 752 mmHg 90%
    20:00 -2°C° 0 mm 3 m/s 752 mmHg 89%
    21:00 -2°C° 0 mm 3 m/s 752 mmHg 88%
    22:00 -2°C° 0 mm 3 m/s 752 mmHg 88%
    23:00 -2°C° 0 mm 3 m/s 752 mmHg 88%

    15 Dezembro, Sábado

    Tempo Temperatura Precipitação Vento Pressão Humidade
    00:00 -4°C° 0 mm 3 m/s 752 mmHg 88%
    01:00 -3°C° 0 mm 2 m/s 752 mmHg 88%
    02:00 -3°C° 0 mm 2 m/s 752 mmHg 88%
    03:00 -3°C° 0 mm 2 m/s 752 mmHg 88%
    04:00 -3°C° 0 mm 2 m/s 753 mmHg 88%
    05:00 -3°C° 0 mm 2 m/s 753 mmHg 89%
    06:00 -3°C° 0 mm 2 m/s 753 mmHg 90%
    07:00 -3°C° 0 mm 2 m/s 753 mmHg 91%
    08:00 -4°C° 0 mm 3 m/s 754 mmHg 89%
    09:00 -2°C° 0 mm 3 m/s 754 mmHg 88%
    10:00 -2°C° 0 mm 3 m/s 754 mmHg 86%
    11:00 -2°C° 0 mm 3 m/s 754 mmHg 84%
    12:00 -2°C° 0 mm 3 m/s 754 mmHg 82%
    13:00 -2°C° 0 mm 3 m/s 754 mmHg 79%
    14:00 -2°C° 0 mm 3 m/s 754 mmHg 80%
    15:00 -2°C° 0 mm 2 m/s 754 mmHg 80%
    16:00 -2°C° 0 mm 2 m/s 754 mmHg 81%
    17:00 -2°C° 0 mm 2 m/s 754 mmHg 82%
    18:00 -2°C° 0 mm 2 m/s 754 mmHg 83%
    19:00 -3°C° 0 mm 2 m/s 754 mmHg 84%
    20:00 -3°C° 0 mm 2 m/s 754 mmHg 85%
    21:00 -3°C° 0 mm 2 m/s 754 mmHg 87%
    22:00 -3°C° 0 mm 2 m/s 754 mmHg 88%
    23:00 -4°C° 0 mm 2 m/s 754 mmHg 89%
    Mostrar mais